DELTA 1 DEB, 2118

Orbit data source: Space-Track

DELTA 1 DEB, 2118 is space debris in SSO originally from a launch on Thu, 03 Feb 1966 UTC launched from the Air Force Eastern Test Range (AFETR). Debris objects in space refer to the collection of defunct objects orbiting the Earth. Examples of debris include non-operational satellites, rocket bodies, and fragments generated from explosions, collisions, or faulty payload assembly.

Loading next visibility...
DELTA 1 DEB details
Identifier
2118, 1966-008D
Orbit
SSO
Last TLE update22 hours ago
Origin
Flag of USGSFC (US)
ManufacturerUnknown
MissionSpacecraft
Bus & MotorUnknown
Mass~1 kg wet, ~1 kg dry
Launch date (UTC)
1966-02-03 (59 years ago)
Launch vehicleUnknown
Launch site
Air Force Eastern Test Range (AFETR)
Object type
Payload
Rocket body
Debris
Shape & HBRBox + 1 Cable, 3.5 m
Radar Cross Section6.125 m², Small (<0.1 m²)

Expand to show TLE details & history

TLE from 22 hours ago
0 DELTA 1 DEB
1 02118U 66008D   24355.70029116  .00001227  00000-0  32395-3 0  9994
2 02118  97.9802 145.6892 0129547  89.6377 271.9659 14.45639958 57265
Epoch: 2024-12-20T16:48Z
Definitive object data (Epoch: 2024-12-20T16:48:25.156Z)
Latitude-0.00003°
Longitude163.82235°
Altitude740.928 km
Speed7.485 km/s
True Right ascension09h 42m 45s
True Declination0° 00' 00"
Sunlit
Object was in full shadow at TLE epoch
Visualization TLE readout
Latitude55.45926°
Longitude152.99209°
Altitude669.49 km
Speed7.57 km/s
Apparent Right ascension04h 48m 10s
Apparent Declination18° 14' 24"
Sunlit
Object is in full shadow
Visualization observer readout
Local Sidereal Time13:41:35
Azimuth313.635° NW
Elevation-17.413°
Doppler factor1
Orbital elements
Apogee altitude829.189 km
Perigee altitude644.84 km
Semi-major axis7,115.151 km
Eccentricity0.0129547
Inclination97.9802°
RAAN145.6892°
Arg. of periapsis89.6377°
True anomaly270.48162°
Mean anomaly271.9659°
Eccentric anomaly271.22382°
Mean motion3.61632 °/min
BSTAR0.00032395
Orbital period99.55 mins
Loading maneuver chart data...
Loading historical data...
Loading historical data...
Loading historical data...
Loading historical data...
Loading historical data...
Loading historical data...
Loading historical data...

DELTA 1 DEB Visibility forecast

Observer location: undefined°, undefined

Span
Click to sort rows by Start time (UTC) header in descending order
Start Az.
Max El. time (UTC)
Max El. Az.
Max El.
End time (UTC)
End Az.
7 mins2024-12-21 23:17:25.592Z4.771° NNE2024-12-21 23:20:25.592Z260.552° W43.342°2024-12-21 23:24:25.592Z201.744° SSW
8 mins2024-12-22 10:27:25.592Z179.501° S2024-12-22 10:31:25.592Z290.079° WNW40.918°2024-12-22 10:35:25.592Z340.777° N
|